Miscellaneous Local Product
Issued by NWS Hastings, NE

Home | Current Version | Previous Version | Graphics & Text | Print | Product List | Glossary On
Versions: 1 2 3 4 5 6 7 8 9 10 11 12 13 14 15 16 17 18 19 20 21 22 23 24 25 26 27 28 29 30 31 32 33 34 35 36 37 38 39 40 41 42 43 44 45 46 47 48 49 50
000
AXUS43 KGID 260902
MISGRI

GID CWA HOURLY WEATHER ROUNDUP
NATIONAL WEATHER SERVICE HASTINGS NE
400 AM CDT SUN APR 26 2015

NOTE: "FAIR" INDICATES FEW OR NO CLOUDS BELOW 12,000 FEET WITH NO
SIGNIFICANT WEATHER AND/OR OBSTRUCTIONS TO VISIBILITY.

...SOUTH CENTRAL NEBRASKA...

CITY           SKY/WX    TMP DP  RH WIND       PRES   REMARKS
GRAND ISLAND   CLOUDY    47  42  83 E9        29.92R
HASTINGS       CLOUDY    47  43  86 E9        29.89S
KEARNEY        CLOUDY    46  41  81 E12       29.90S
ORD            CLOUDY    43  40  89 E3        29.91S
YORK           MOCLDY    46  45  93 E9        29.92R
AURORA         CLOUDY    46  46  97 E9        29.91S
LEXINGTON      CLOUDY    46  44  91 E10       29.89R FOG
HOLDREGE       CLOUDY    45  43  95 E16       29.88R FOG
HEBRON         CLOUDY    47  44  88 E8        29.89R

...NEBRASKA PANHANDLE...

CITY           SKY/WX    TMP DP  RH WIND       PRES   REMARKS
CHADRON        FOG       47  47 100 NE7       29.85S VSB 1/4
ALLIANCE       CLOUDY    47  45  93 SE17      29.83R
SCOTTSBLUFF    CLOUDY    49 N/A N/A S12       29.79R
SIDNEY         RAIN      46  45  96 CALM      29.85R FOG

...WESTERN AND NORTH CENTRAL NEBRASKA...

CITY           SKY/WX    TMP DP  RH WIND       PRES   REMARKS
VALENTINE      CLOUDY    48  41  76 S14       29.92R
AINSWORTH      CLOUDY    46  42  88 SE9       29.92S
ONEILL         CLOUDY    48  41  76 SE10      29.95R
BROKEN BOW     CLOUDY    47  42  83 SE10G22   29.89S
IMPERIAL       CLOUDY    46  44  93 E14       29.85F FOG
NORTH PLATTE   NOT AVBL
MCCOOK         CLOUDY    46  44  93 E8        29.87F FOG

...EASTERN NEBRASKA...

CITY           SKY/WX    TMP DP  RH WIND       PRES   REMARKS
NORFOLK        PTCLDY    42  39  89 E5        29.94S
SO SIOUX CITY  CLEAR     46  38  73 E5        29.97R
TEKAMAH        PTCLDY    42  39  89 N6        29.95S
COLUMBUS       CLOUDY    46  37  71 E9        29.95R
ALBION         CLEAR     40  37  88 E5        29.94R FOG
OMAHA EPPLEY   CLEAR     44  41  89 NE7       29.94S
OFFUTT AFB     CLEAR     43  40  87 NE6       29.93R
MILLARD        CLEAR     47  42  82 NE3       29.93S
LINCOLN        CLOUDY    48  42  80 NE8       29.93R
NEBRASKA CITY  CLOUDY    47  42  83 NE10      29.90S
BEATRICE       CLOUDY    46  45  95 NE8       29.90R FOG
FALLS CITY     CLOUDY    47  41  80 E14       29.89R

...NORTHERN KANSAS...

CITY           SKY/WX    TMP DP  RH WIND       PRES   REMARKS
GOODLAND       LGT RAIN  45  45 100 E17       29.82F FOG
HILL CITY      CLOUDY    48  46  93 E16       29.85R FOG
NORTON         CLOUDY    48  43  81 E14       29.85R
SMITH CENTER   CLOUDY    45  45 100 NE8       29.87S FOG
HAYS           CLOUDY    48  41  76 E15G21    29.84R
RUSSELL        CLOUDY    47  47 100 E17       29.82R FOG
CONCORDIA      CLOUDY    47  46  97 NE8       29.86S FOG
SALINA         CLOUDY    50  45  83 NE12      29.84R
TOPEKA         CLOUDY    50  47  89 NE9       29.85R



USA.gov is the U.S. government's official web portal to all federal, state and local government web resources and services.